Home   Weather   Richmond   Past weeks

Flag for USA Past Weather in Richmond, Virginia, USA — Yesterday and Last 2 Weeks

Now
44 °F

Overcast.


Feels Like: 39 °F
Forecast: 26 / 40 °F
Wind: 9 mph from West

Location: Richmond International Airport

Current Time: Dec 8, 2016 at 7:23:58 pm

Latest Report: Dec 8, 2016 at 6:54 pm


Visibility: 10 mi

Pressure: 30.14 "Hg

Humidity: 37%

Dew Point: 19 °F

Location of RichmondLocation

Past Weather in Richmond — Graph

°F

Richmond Temperature Yesterday

Maximum temperature yesterday: 55 °F (at 12:54 pm)
Minimum temperature yesterday: 37 °F (at 10:54 pm)
Average temperature yesterday: 46 °F

High & Low Weather Summary for the Past Weeks

 TemperatureHumidityPressure
High72 °F (Nov 30, 2:54 pm)100% (Nov 24, 11:54 pm)30.32 "Hg (Nov 24, 11:54 pm)
Low31 °F (Nov 27, 2:54 am)28% (Dec 8, 3:54 pm)29.60 "Hg (Nov 30, 11:58 pm)
Average48 °F74%30.08 "Hg
* Reported Nov 23 5:54 pm — Dec 8 5:54 pm, Richmond, Weather by CustomWeather, © 2016

Note: Actual official high and low records may vary slightly from our data, if they occured in-between our weather recording intervals... More about our weather records

Advertising

Richmond Weather History for the Previous 24 Hours

Scroll right to see more
 ConditionsComfort  
Time TempWeatherWind HumidityBarometerVisibility
5:54 pm
Thu, Dec 8
45 °FOvercast.13 mph37%30.11 "Hg10 mi
4:54 pm46 °FPassing clouds.8 mph33%30.09 "Hg10 mi
3:54 pm48 °FBroken clouds.16 mph28%30.06 "Hg10 mi
2:54 pm51 °FBroken clouds.16 mph31%30.03 "Hg10 mi
1:54 pm51 °FBroken clouds.18 mph33%30.02 "Hg10 mi
12:54 pm50 °FPartly sunny.6 mph48%30.03 "Hg10 mi
11:54 am47 °FPartly sunny.8 mph69%30.05 "Hg10 mi
10:54 am45 °FMostly cloudy.9 mph82%30.07 "Hg10 mi
9:54 am43 °FOvercast.5 mph89%30.08 "Hg8 mi
8:54 am43 °FFog.No wind89%30.06 "Hg5 mi
7:54 am41 °FFog.3 mph93%30.05 "Hg5 mi
6:54 am40 °FFog.No wind97%30.04 "Hg5 mi
5:54 am40 °FMostly cloudy.No wind93%30.04 "Hg8 mi
4:54 am39 °FOvercast.No wind93%30.04 "Hg7 mi
3:54 am40 °FPassing clouds.No wind93%30.05 "Hg9 mi
2:54 am41 °FOvercast.No wind89%30.06 "Hg9 mi
1:54 am40 °FMostly cloudy.No wind86%30.07 "Hg10 mi
12:54 am37 °FOvercast.5 mph89%30.07 "Hg10 mi
11:54 pm
Wed, Dec 7
39 °FHigh level clouds.No wind79%30.09 "Hg10 mi
10:54 pm37 °FPassing clouds.3 mph86%30.10 "Hg10 mi
9:54 pm40 °FHigh level clouds.No wind77%30.09 "Hg10 mi
8:54 pm41 °FHigh level clouds.No wind70%30.10 "Hg10 mi
7:54 pm42 °FHigh level clouds.5 mph68%30.10 "Hg10 mi
Weather by CustomWeather, © 2016

See weather overviewHow to use our weather pages